Location: El Frío
(10.0713°N, 67.9111°W)
Time: 08:55:46
(UTC+00:00)

CZ-4C R/B - Pass Details

Date: 11 December 2025
Orbit: 485 x 1495 km, 63.4° (Epoch: 15 January)

Event Time Altitude Azimuth Distance (km) Brightness Sun altitude
Rises 23:04:02 0° 343° (NNW) 4,257 5.8 -12.8°
Reaches altitude 10° 23:06:46 10° 346° (NNW) 3,391 5.2 -13.4°
Maximum altitude 23:15:19 64° 67° (ENE) 1,608 3.3 -15.4°
Drops below altitude 10° 23:24:26 10° 146° (SE) 3,617 5.3 -17.5°
Sets 23:27:26 0° 149° (SSE) 4,554 5.9 -18.1°
